IGO719 VOBL-VOPB

Flight info

Callsign IGO719
Flight time N/A
Altitude 39000
Route TULNA8A/09L TULNA W116 MMV P761 LEGIN L510 NIMOV
Aircraft A20N/M-SDE2E3FGHIRWXY/LB1

Departure

Time N/A
Airport Kempegowda International Airport Bengaluru (VOBL)

Arrival

Time 2026-05-07 09:30
Airport Veer Savarkar International Airport / INS Utkrosh (VOPB)
Time Latitude Longitude Altitude Speed Heading
2026-05-07 08:28 12.44755 85.61740 38804 ft 450 kts 97°
2026-05-07 08:28 12.44415 85.64925 38796 ft 450 kts 97°
2026-05-07 08:29 12.43738 85.71248 38799 ft 450 kts 97°
2026-05-07 08:29 12.43055 85.77613 38806 ft 450 kts 97°
2026-05-07 08:30 12.42369 85.83981 38805 ft 451 kts 97°
2026-05-07 08:30 12.41682 85.90355 38808 ft 451 kts 97°
2026-05-07 08:31 12.40992 85.96736 38811 ft 451 kts 97°
2026-05-07 08:31 12.40417 86.02042 38814 ft 451 kts 97°
2026-05-07 08:32 12.39727 86.08411 38807 ft 450 kts 97°
2026-05-07 08:32 12.39035 86.14772 38807 ft 450 kts 97°
2026-05-07 08:33 12.38342 86.21133 38808 ft 449 kts 97°
2026-05-07 08:33 12.37648 86.27484 38805 ft 450 kts 97°
2026-05-07 08:34 12.36956 86.33806 38800 ft 449 kts 97°
2026-05-07 08:34 12.36259 86.40163 38807 ft 449 kts 97°
2026-05-07 08:35 12.35561 86.46511 38806 ft 449 kts 97°
2026-05-07 08:35 12.34861 86.52859 38803 ft 449 kts 96°
2026-05-07 08:36 12.34161 86.59203 38805 ft 448 kts 97°
2026-05-07 08:36 12.33460 86.65540 38803 ft 448 kts 97°
2026-05-07 08:37 12.32762 86.71838 38804 ft 448 kts 97°
2026-05-07 08:37 12.32059 86.78163 38802 ft 447 kts 97°
2026-05-07 08:38 12.31356 86.84480 38802 ft 447 kts 97°
2026-05-07 08:38 12.30651 86.90793 38806 ft 446 kts 96°
2026-05-07 08:39 12.29946 86.97096 38809 ft 446 kts 97°
2026-05-07 08:39 12.29240 87.03398 38804 ft 446 kts 97°
2026-05-07 08:40 12.28536 87.09667 38805 ft 446 kts 97°
2026-05-07 08:40 12.27826 87.15976 38805 ft 446 kts 97°
2026-05-07 08:41 12.27116 87.22279 38806 ft 446 kts 97°
2026-05-07 08:41 12.26404 87.28575 38809 ft 446 kts 97°
2026-05-07 08:42 12.25690 87.34880 38812 ft 446 kts 97°
2026-05-07 08:42 12.24980 87.41142 38803 ft 446 kts 97°
2026-05-07 08:43 12.24264 87.47443 38802 ft 446 kts 97°
2026-05-07 08:43 12.23545 87.53748 38806 ft 446 kts 97°
2026-05-07 08:44 12.22826 87.60048 38805 ft 446 kts 97°
2026-05-07 08:44 12.22105 87.66350 38805 ft 446 kts 97°
2026-05-07 08:45 12.21382 87.72658 38808 ft 447 kts 97°
2026-05-07 08:45 12.20658 87.78957 38815 ft 447 kts 97°
2026-05-07 08:46 12.19932 87.85272 38809 ft 446 kts 97°
2026-05-07 08:46 12.19210 87.91528 38807 ft 446 kts 97°
2026-05-07 08:47 12.18482 87.97830 38808 ft 446 kts 97°
2026-05-07 08:47 12.17752 88.04127 38805 ft 446 kts 97°
2026-05-07 08:48 12.17021 88.10430 38807 ft 446 kts 97°
2026-05-07 08:48 12.16289 88.16726 38806 ft 446 kts 97°
2026-05-07 08:49 12.15557 88.23013 38807 ft 446 kts 97°
2026-05-07 08:49 12.14826 88.29272 38808 ft 446 kts 97°
2026-05-07 08:50 12.14091 88.35564 38809 ft 446 kts 97°
2026-05-07 08:50 12.13352 88.41861 38812 ft 446 kts 97°
2026-05-07 08:51 12.12612 88.48164 38812 ft 446 kts 97°
2026-05-07 08:51 12.11874 88.54451 38813 ft 445 kts 97°
2026-05-07 08:52 12.11139 88.60694 38811 ft 445 kts 97°
2026-05-07 08:52 12.10397 88.66985 38811 ft 445 kts 97°
2026-05-07 08:53 12.09726 88.73282 38807 ft 445 kts 95°
2026-05-07 08:53 12.09203 88.79586 38805 ft 445 kts 95°
2026-05-07 08:54 12.08669 88.85848 38807 ft 445 kts 95°
2026-05-07 08:54 12.08114 88.92148 38808 ft 444 kts 95°
2026-05-07 08:55 12.07554 88.98438 38808 ft 444 kts 95°
2026-05-07 08:55 12.06994 89.04726 38807 ft 444 kts 95°
2026-05-07 08:56 12.06433 89.11000 38807 ft 444 kts 95°
2026-05-07 08:56 12.05870 89.17284 38809 ft 443 kts 95°
2026-05-07 08:57 12.05311 89.23515 38804 ft 443 kts 95°
2026-05-07 08:57 12.04746 89.29785 38799 ft 443 kts 95°
2026-05-07 08:58 12.04181 89.36042 38800 ft 443 kts 95°
2026-05-07 08:58 12.03614 89.42318 38793 ft 443 kts 95°
2026-05-07 08:59 12.03045 89.48585 38796 ft 443 kts 95°
2026-05-07 08:59 12.02475 89.54855 38798 ft 443 kts 96°
2026-05-07 09:00 12.01903 89.61129 38792 ft 444 kts 96°
2026-05-07 09:00 12.01329 89.67401 38793 ft 444 kts 96°
2026-05-07 09:01 12.00753 89.73692 38792 ft 445 kts 96°
2026-05-07 09:01 12.00175 89.79990 38790 ft 445 kts 96°
2026-05-07 09:02 11.99599 89.86246 38792 ft 446 kts 96°
2026-05-07 09:02 11.99015 89.92566 38789 ft 447 kts 96°
2026-05-07 09:03 11.98429 89.98900 38791 ft 448 kts 96°
2026-05-07 09:03 11.97839 90.05263 38796 ft 449 kts 96°
2026-05-07 09:04 11.97251 90.11584 38802 ft 449 kts 96°
2026-05-07 09:04 11.96660 90.17921 38804 ft 447 kts 96°
2026-05-07 09:05 11.96069 90.24250 38806 ft 447 kts 96°
2026-05-07 09:05 11.95478 90.30560 38802 ft 446 kts 96°
2026-05-07 09:06 11.94885 90.36867 38800 ft 446 kts 96°
2026-05-07 09:06 11.94291 90.43174 38619 ft 446 kts 95°
2026-05-07 09:07 11.93997 90.46290 38388 ft 446 kts 95°
2026-05-07 09:07 11.93700 90.49440 38124 ft 446 kts 95°
2026-05-07 09:07 11.93402 90.52598 37860 ft 447 kts 95°
2026-05-07 09:07 11.93103 90.55757 37600 ft 448 kts 95°
2026-05-07 09:08 11.92802 90.58934 37347 ft 448 kts 95°
2026-05-07 09:08 11.92502 90.62098 37092 ft 449 kts 95°
2026-05-07 09:08 11.92200 90.65277 36842 ft 450 kts 95°
2026-05-07 09:08 11.91897 90.68457 36595 ft 451 kts 95°
2026-05-07 09:09 11.91696 90.70569 36432 ft 451 kts 95°
2026-05-07 09:09 11.91346 90.74244 36154 ft 451 kts 95°
2026-05-07 09:09 11.91135 90.76463 35997 ft 448 kts 96°
2026-05-07 09:09 11.90831 90.79647 35774 ft 453 kts 96°
2026-05-07 09:10 11.90523 90.82865 35542 ft 456 kts 96°
2026-05-07 09:10 11.90214 90.86091 35310 ft 456 kts 96°
2026-05-07 09:10 11.89909 90.89275 35077 ft 456 kts 96°
2026-05-07 09:10 11.89600 90.92499 34850 ft 458 kts 96°
2026-05-07 09:11 11.89288 90.95741 34622 ft 459 kts 96°
2026-05-07 09:11 11.88976 90.98989 34393 ft 460 kts 96°
2026-05-07 09:11 11.88660 91.02264 34168 ft 461 kts 96°
2026-05-07 09:11 11.88347 91.05516 33948 ft 462 kts 96°
2026-05-07 09:12 11.88030 91.08795 33715 ft 464 kts 96°
2026-05-07 09:12 11.87713 91.12079 33467 ft 464 kts 96°
2026-05-07 09:12 11.87399 91.15317 33217 ft 464 kts 96°
2026-05-07 09:12 11.87081 91.18595 32968 ft 464 kts 96°
2026-05-07 09:13 11.86762 91.21885 32720 ft 465 kts 96°
2026-05-07 09:13 11.86401 91.25176 32473 ft 465 kts 101°
2026-05-07 09:13 11.85529 91.28345 32230 ft 465 kts 112°
2026-05-07 09:13 11.84026 91.31272 31996 ft 465 kts 124°
2026-05-07 09:14 11.81966 91.33815 31758 ft 466 kts 135°
2026-05-07 09:14 11.79636 91.36116 31525 ft 466 kts 136°
2026-05-07 09:14 11.77299 91.38406 31294 ft 466 kts 136°
2026-05-07 09:14 11.74960 91.40705 31057 ft 467 kts 136°
2026-05-07 09:15 11.72622 91.43014 30832 ft 467 kts 136°
2026-05-07 09:15 11.70322 91.45293 30614 ft 467 kts 136°
2026-05-07 09:15 11.67991 91.47605 30378 ft 467 kts 136°
2026-05-07 09:15 11.65669 91.49909 30152 ft 464 kts 136°
2026-05-07 09:16 11.63358 91.52202 29929 ft 462 kts 136°
2026-05-07 09:16 11.61060 91.54482 29671 ft 461 kts 136°
2026-05-07 09:16 11.58768 91.56754 29400 ft 458 kts 136°
2026-05-07 09:16 11.56478 91.59024 29147 ft 455 kts 135°
2026-05-07 09:17 11.54214 91.61267 28886 ft 454 kts 135°
2026-05-07 09:17 11.51953 91.63508 28635 ft 452 kts 135°
2026-05-07 09:17 11.49701 91.65738 28377 ft 450 kts 135°
2026-05-07 09:17 11.47461 91.67958 28128 ft 448 kts 135°
2026-05-07 09:18 11.45232 91.70164 27881 ft 446 kts 135°
2026-05-07 09:18 11.43015 91.72359 27633 ft 444 kts 135°
2026-05-07 09:18 11.40831 91.74589 27383 ft 443 kts 130°
2026-05-07 09:18 11.39072 91.77149 27142 ft 441 kts 118°
2026-05-07 09:19 11.37909 91.80025 26905 ft 439 kts 105°
2026-05-07 09:19 11.37398 91.83081 26666 ft 438 kts 93°
2026-05-07 09:19 11.37433 91.85131 26510 ft 437 kts 85°
2026-05-07 09:19 11.38348 91.89118 26202 ft 437 kts 72°
2026-05-07 09:20 11.39285 91.92056 25975 ft 434 kts 73°
2026-05-07 09:20 11.40070 91.95026 25613 ft 433 kts 81°
2026-05-07 09:20 11.40393 91.98079 24907 ft 436 kts 85°
2026-05-07 09:20 11.40550 92.00171 24271 ft 440 kts 86°
2026-05-07 09:21 11.40768 92.03351 23431 ft 444 kts 86°
2026-05-07 09:21 11.41398 92.11787 21592 ft 430 kts 86°
2026-05-07 09:21 11.41967 92.18880 20034 ft 419 kts 85°
2026-05-07 09:21 11.42667 92.27643 17944 ft 407 kts 86°
2026-05-07 09:22 11.42789 92.30510 17265 ft 402 kts 94°
2026-05-07 09:22 11.42236 92.33279 16600 ft 397 kts 110°
2026-05-07 09:22 11.40217 92.36640 15678 ft 392 kts 133°
2026-05-07 09:22 11.35038 92.39706 14294 ft 386 kts 155°
2026-05-07 09:23 11.30178 92.41970 13016 ft 380 kts 154°
2026-05-07 09:23 11.25420 92.44189 11689 ft 374 kts 154°
2026-05-07 09:23 11.20753 92.46356 10434 ft 369 kts 154°
2026-05-07 09:23 11.16083 92.48519 9154 ft 363 kts 154°
2026-05-07 09:24 11.12694 92.50087 8169 ft 360 kts 154°
2026-05-07 09:24 11.10496 92.51331 7510 ft 355 kts 141°
2026-05-07 09:24 11.08865 92.53136 6887 ft 350 kts 122°
2026-05-07 09:24 11.07762 92.57399 5737 ft 345 kts 86°
2026-05-07 09:25 11.11162 92.63133 3879 ft 344 kts 34°
2026-05-07 09:25 11.17718 92.63743 2809 ft 315 kts 352°
2026-05-07 09:25 11.21777 92.63026 2795 ft 278 kts 353°
2026-05-07 09:25 11.25372 92.62413 2796 ft 245 kts 353°
2026-05-07 09:26 11.28646 92.61852 2748 ft 239 kts 353°
2026-05-07 09:26 11.31907 92.61295 2696 ft 231 kts 353°
2026-05-07 09:26 11.34807 92.60789 2688 ft 200 kts 353°
2026-05-07 09:26 11.37557 92.60316 2693 ft 192 kts 353°
2026-05-07 09:27 11.40027 92.59884 2691 ft 180 kts 354°
2026-05-07 09:27 11.42425 92.59478 2693 ft 176 kts 353°
2026-05-07 09:27 11.46933 92.60288 2699 ft 169 kts 40°
2026-05-07 09:28 11.48902 92.61588 2703 ft 168 kts 36°
2026-05-07 09:28 11.50806 92.62955 2695 ft 167 kts 39°
2026-05-07 09:28 11.52684 92.64363 2499 ft 169 kts 40°
2026-05-07 09:28 11.54607 92.65809 2077 ft 173 kts 40°
2026-05-07 09:29 11.56367 92.67133 1674 ft 157 kts 39°
2026-05-07 09:29 11.58097 92.68431 1266 ft 152 kts 39°
2026-05-07 09:29 11.59846 92.69738 878 ft 149 kts 42°
2026-05-07 09:29 11.61428 92.70931 539 ft 148 kts 42°
2026-05-07 09:30 11.62275 92.71567 325 ft 150 kts 38°
2026-05-07 09:30 11.63105 92.72195 125 ft 150 kts 40°
2026-05-07 09:30 11.63858 92.72762 41 ft 87 kts 38°
2026-05-07 09:30 11.64038 92.72900 41 ft 1 kts 36°
2026-05-07 09:31 11.64128 92.72968 42 ft 31 kts 37°
2026-05-07 09:31 11.64353 92.73151 41 ft 49 kts 31°
2026-05-07 09:31 11.64561 92.73294 41 ft 26 kts 37°
2026-05-07 09:31 11.64664 92.73340 41 ft 13 kts 332°
2026-05-07 09:32 11.64696 92.73300 40 ft 2 kts 291°
2026-05-07 09:32 11.64711 92.73283 42 ft 4 kts 320°
2026-05-07 09:32 11.64738 92.73268 42 ft 0 kts 340°
2026-05-07 09:32 11.64724 92.73274 42 ft 0 kts 350°
2026-05-07 09:33 11.64733 92.73268 42 ft 0 kts 334°
2026-05-07 09:33 11.64740 92.73255 42 ft 7 kts 289°
2026-05-07 09:33 11.64754 92.73235 42 ft 2 kts 315°
2026-05-07 09:34 11.64780 92.73225 41 ft 1 kts 350°
2026-05-07 09:34 11.64793 92.73225 41 ft 0 kts 357°
2026-05-07 09:34 11.64794 92.73224 41 ft 0 kts 356°